Moose, Wyoming, United States (83012)
Lat: 43.66N, Lon: 110.72W
Wx Zone: WYZ013
Local Info
Past Weather Observations for Sunday, March 1, 2015

NOTE: This archive is for the closest National Weather Service station to Moose. Information may differ from the station used for current weather conditions.

Click here for Long-term Archive

Time Weather Temperature Dewpoint Humidity Pressure Winds Precip Visibility
23:55
Mostly Cloudy
7°F / -14°C 1°F / -17°C 78% 30.01 in
(1016 mb)
N 11.5 mph
(N 19 kph)
- 10SM
23:35
Partly Cloudy
7°F / -14°C 1°F / -17°C 78% 30.01 in
(1016 mb)
N 12.7 mph
(N 20 kph)
- 10SM
23:15
Partly Cloudy
7°F / -14°C 1°F / -17°C 78% 30.01 in
(1016 mb)
N 12.7 mph
(N 20 kph)
- 10SM
22:55
Clear
3°F / -16°C 1°F / -17°C 92% 30.01 in
(1016 mb)
N 12.7 mph
(N 20 kph)
- 10SM
22:35
Clear
5°F / -15°C 1°F / -17°C 85% 30.04 in
(1017 mb)
N 13.8 mph
(N 22 kph)
- 10SM
22:15
Mostly Cloudy
7°F / -14°C 3°F / -16°C 85% 30.04 in
(1017 mb)
N 13.8 mph
(N 22 kph)
- 10SM
21:55
Mostly Cloudy
7°F / -14°C 3°F / -16°C 85% 30.04 in
(1017 mb)
N 11.5 mph
(N 19 kph)
- 10SM
21:35
Partly Cloudy
5°F / -15°C 1°F / -17°C 85% 30.04 in
(1017 mb)
N 6.9 mph
(N 11 kph)
- 10SM
21:15
Partly Cloudy
7°F / -14°C 3°F / -16°C 85% 30.04 in
(1017 mb)
N 9.2 mph
(N 15 kph)
- 10SM
19:51
Clear
9°F / -13°C 3°F / -16°C 78% 30.04 in
(1017 mb)
Variable 5.8 mph
(Variable 9 kph)
- 10SM
18:51
Clear
12°F / -11°C 3°F / -16°C 67% 30.01 in
(1016 mb)
Calm - 10SM
17:51
Clear
19°F / -7°C 12°F / -11°C 73% 30.01 in
(1016 mb)
Calm - 10SM
16:51
Clear
21°F / -6°C 12°F / -11°C 68% 30.04 in
(1017 mb)
Variable 4.6 mph
(Variable 7 kph)
- 10SM
15:51
Clear
25°F / -4°C 12°F / -11°C 59% 30.06 in
(1018 mb)
Calm - 10SM
14:51
Clear
21°F / -6°C 10°F / -12°C 63% 30.06 in
(1018 mb)
Calm - 10SM
13:51
Clear
21°F / -6°C 10°F / -12°C 63% 30.09 in
(1019 mb)
Calm - 10SM
12:51
Clear
18°F / -8°C 7°F / -14°C 62% 30.12 in
(1020 mb)
Calm - 10SM
11:53
Clear
12°F / -11°C 7°F / -14°C 79% 30.15 in
(1021 mb)
Calm - 10SM
11:13
Clear
10°F / -12°C 1°F / -17°C 67% 30.18 in
(1022 mb)
Calm - 10SM
09:51
Clear
5°F / -15°C °F / -18°C 78% 30.18 in
(1022 mb)
NNE 9.2 mph
(NNE 15 kph)
- 10SM
08:51
Clear
°F / -18°C -4°F / -20°C 84% 30.18 in
(1022 mb)
N 3.5 mph
(N 6 kph)
- 10SM
07:51
Clear
-2°F / -19°C -6°F / -21°C 84% 30.15 in
(1021 mb)
N 12.7 mph
(N 20 kph)
- 10SM
06:51
Clear
-2°F / -19°C -6°F / -21°C 84% 30.12 in
(1020 mb)
N 8.1 mph
(N 13 kph)
- 10SM
06:35
Clear
°F / -18°C -4°F / -20°C 84% 30.12 in
(1020 mb)
N 8.1 mph
(N 13 kph)
- 10SM
06:15
Clear
°F / -18°C -2°F / -19°C 92% 30.12 in
(1020 mb)
N 6.9 mph
(N 11 kph)
- 10SM
05:55
Clear
°F / -18°C -2°F / -19°C 92% 30.12 in
(1020 mb)
N 6.9 mph
(N 11 kph)
- 10SM
05:35
Clear
°F / -18°C -2°F / -19°C 92% 30.12 in
(1020 mb)
Calm - 10SM
05:15
Clear
1°F / -17°C -2°F / -19°C 85% 30.09 in
(1019 mb)
N 13.8 mph
(N 22 kph)
- 10SM
04:55
Clear
°F / -18°C -2°F / -19°C 92% 30.09 in
(1019 mb)
N 18.4 mph
(N 30 kph)
- 10SM
04:35
Clear
1°F / -17°C °F / -18°C 92% 30.09 in
(1019 mb)
N 17.3 mph
(N 28 kph)
- 10SM
04:15
Clear
3°F / -16°C °F / -18°C 85% 30.06 in
(1018 mb)
N 18.4 mph
(N 30 kph)
- 10SM
03:55
Clear
3°F / -16°C °F / -18°C 85% 30.06 in
(1018 mb)
N 17.3 mph
(N 28 kph)
- 10SM
03:35
Clear
5°F / -15°C 1°F / -17°C 85% 30.06 in
(1018 mb)
N 17.3 mph
(N 28 kph)
- 10SM
03:15
Clear
3°F / -16°C °F / -18°C 85% 30.06 in
(1018 mb)
N 17.3 mph
(N 28 kph)
- 10SM
02:55
Clear
5°F / -15°C 1°F / -17°C 85% 30.04 in
(1017 mb)
N 19.6 mph
(N 32 kph)
- 10SM
02:35
Clear
7°F / -14°C 1°F / -17°C 78% 30.04 in
(1017 mb)
N 15 mph
(N 24 kph)
- 10SM
02:15
Clear
7°F / -14°C 1°F / -17°C 78% 30.04 in
(1017 mb)
N 16.1 mph
(N 26 kph)
- 10SM
01:55
Clear
9°F / -13°C 3°F / -16°C 78% 30.04 in
(1017 mb)
N 13.8 mph
(N 22 kph)
- 10SM
01:35
Clear
9°F / -13°C 3°F / -16°C 78% 30.04 in
(1017 mb)
N 16.1 mph
(N 26 kph)
- 10SM
01:15
Clear
10°F / -12°C 3°F / -16°C 72% 30.01 in
(1016 mb)
N 15 mph
(N 24 kph)
- 10SM
00:55
Clear
10°F / -12°C 5°F / -15°C 79% 30.01 in
(1016 mb)
NE 12.7 mph
(NE 20 kph)
- 10SM
00:35
Clear
10°F / -12°C 3°F / -16°C 72% 30.01 in
(1016 mb)
N 13.8 mph
(N 22 kph)
- 10SM
00:15
Clear
10°F / -12°C 3°F / -16°C 72% 29.98 in
(1015 mb)
N 17.3 mph
(N 28 kph)
- 10SM
Time Weather Temperature Dewpoint Humidity Pressure Winds Precip Visibility


Weather for websites

WeatherForYou.com, LLC is not responsible for any damages or problems caused by this service. Current weather conditions are obtained from the closest station including government and personal stations which may have varying degrees of accuracy. Weather forecasts are derived from the NOAA NDFD. Like all things, this site belongs to Jesus Christ... He just trusts me to maintain it. If you have any questions or comments email webmaster@weatherforyou.com

Copyright © 2015, WeatherForYou.com LLC. All rights reserved.